Regional Weather Roundup
Issued by NWS Jackson, KY

Home | Current Version | Previous Version | Graphics & Text | Print | Product List | Glossary Off
Versions: 1 2 3 4 5 6 7 8 9 10 11 12 13 14 15 16 17 18 19 20 21 22 23 24 25 26 27 28 29 30 31 32 33 34 35 36 37 38 39 40 41 42 43 44 45 46 47 48 49 50

000
ASUS43 KJKL 271710
RWRJKL

EAST KENTUCKY HOURLY WEATHER ROUNDUP
NATIONAL WEATHER SERVICE JACKSON KY
1200 PM EST FRI FEB 27 2015

NOTE: "FAIR" INDICATES FEW OR NO CLOUDS BELOW 12,000 FEET WITH
NO SIGNIFICANT WEATHER AND/OR OBSTRUCTIONS TO VISIBILITY.

* THESE REPORTS ARE NOT UNDER NWS QUALITY CONTROL AND MAY NOT
  REPORT WEATHER SUCH AS PRECIPITATION AND FOG.

KYZ079-080-083-085-087-088-110-112-115-119-120-271800
...EASTERN KENTUCKY...

CITY           SKY/WX    TMP DP  RH WIND       PRES   REMARKS
JACKSON        SUNNY     22   5  48 CALM      30.51R
LONDON         SUNNY     23   5  46 VRB6      30.53R WCI  16
SOMERSET*      SUNNY     19   7  58 NE8       30.58R WCI   9
MONTICELLO*    SUNNY     24   9  53 NE6       30.59R WCI  17
MIDDLESBORO*   MOSUNNY   24  13  63 N8        30.51R WCI  15
HAZARD APT*    PTSUNNY   21   7  53 W3        30.51R
BLACK MTN*       N/A     16  12  86 N5          N/A  WCI   9
PIKEVILLE APT* CLOUDY    18   7  62 CALM      30.49R
BIG SANDY*     PTSUNNY   19   7  58 NW3       30.52R
MOREHEAD APT*  CLOUDY    18   3  53 VRB7      30.58R WCI   8
$$

KYZ035-036-041-042-044-050-067-078-099-271800
...CENTRAL KENTUCKY...

CITY           SKY/WX    TMP DP  RH WIND       PRES   REMARKS
MT STERLING*   CLOUDY    19   7  58 NE3       30.59R
FLEMING/MASON* PTSUNNY   16   3  57 N8        30.60R WCI   5
DANVILLE*      MOSUNNY   19  10  68 N3        30.59R
RICHMOND*      CLOUDY    18   7  62 N6        30.57R WCI   9
LEXINGTON      MOSUNNY   19   6  57 N3        30.59R
FRANKFORT      CLOUDY    20   4  50 NE5       30.59R WCI  13
$$

KYZ091>093-OHZ055-061-077-WVZ005-015-034-035-042-271800
...SOUTHERN OHIO/WEST VIRGINIA...

CITY           SKY/WX    TMP DP  RH WIND       PRES   REMARKS
COVINGTON      MOSUNNY   19   2  47 NW10      30.59R WCI   7
COLUMBUS       FLURRIES  14   4  64 W3        30.57R
DAYTON         SUNNY     16   2  54 W3        30.57R
WILMINGTON     MOSUNNY   16   1  51 NW9       30.56R WCI   4
HUNTINGTON     CLOUDY    16   5  62 VRB5      30.56R WCI   9
CHARLESTON     MOSUNNY   20   6  55 VRB3      30.53R
PINEVILLE*       N/A     25  15  63 MISG      30.48R
BECKLEY        CLOUDY    17   8  67 N8        30.36R WCI   7
BLUEFIELD      FLURRIES  20   9  62 W13       30.34R WCI   7
$$

VAZ002-007-008-TNZ017-027-036-066-071-271800
...SOUTHWEST VIRGINIA/EAST TENNESSEE...

CITY           SKY/WX    TMP DP  RH WIND       PRES   REMARKS
WISE*          CLOUDY    23  12  63 N6        30.37R WCI  16
JONESVILLE*    MOSUNNY   27  14  59 NW3       30.47S
ABINGDON*      FLURRIES  28  16  62 W6        30.38S WCI  21
BRISTOL        LGT SNOW  30  21  69 CALM      30.43S
KNOXVILLE      MOSUNNY   29  15  56 N6        30.48R WCI  23
OAK RIDGE      SUNNY     31  16  54 E5        30.49S WCI  26
CROSSVILLE     SUNNY     23  12  62 N7        30.45R WCI  15
NASHVILLE      MOSUNNY   29  10  45 N7G16     30.58R WCI  22
$$

...KEY TO REMARKS...
VSB - VISIBILITY IN MILES
WCI - WIND CHILL INDEX
HX  - HEAT INDEX

$$


USA.gov is the U.S. government's official web portal to all federal, state and local government web resources and services.